Simultaneous Nadir Overpasses (SNOs) Predictions

Prediction of SNOs between GOES-16 and NOAA-19 Satellite Orbit:

Table of predicted SNOs for the next 14.0 days since TLE Epoch: 10/7/2023
Index Date Time (GOES-16) GOES-16 Lat,Lon NOAA-19 Lat,Lon Distance(km) Time Diff (sec)
1 10/07/2023 01:52:11 0.04, -75.20 0.00, -75.78 64.55 0
2 10/08/2023 01:41:23 0.04, -75.20 0.59, -72.81 272.84 80
3 10/10/2023 14:01:21 -0.04, -75.24 0.47, -77.56 264.25 80
4 10/11/2023 13:46:35 -0.04, -75.25 -0.19, -74.61 73.07 80
5 10/12/2023 13:34:28 -0.04, -75.26 -0.85, -71.66 410.55 80
6 10/14/2023 02:09:09 0.04, -75.26 -0.92, -79.34 466.51 80
7 10/15/2023 01:54:23 0.04, -75.27 -0.25, -76.39 128.72 80
8 10/16/2023 01:44:57 0.03, -75.28 0.48, -73.46 209.23 80
9 10/18/2023 14:04:53 -0.03, -75.34 0.65, -78.19 325.25 80
10 10/19/2023 13:50:07 -0.03, -75.36 -0.04, -75.24 12.96 80
11 10/20/2023 13:38:00 -0.03, -75.37 -0.72, -72.29 350.86 80
